Home   Weather   Copenhagen   Past weeks
Flag for Denmark

Past Weather in Copenhagen, Denmark — Yesterday and Last 2 Weeks

Now
55 °F

Cool.


Feels Like: 52 °F
Forecast: 55 / 51 °F
Wind: 15 mph from South

Location: Koebenhavn-Kastrup Airport

Current Time: Oct 19, 2019 at 5:14:13 pm

Latest Report: Oct 19, 2019 at 4:20 pm


Visibility: N/A

Pressure: 29.74 "Hg

Humidity: 82%

Dew Point: 50 °F

Location of CopenhagenLocation

Past Weather in Copenhagen — Graph

°F

Copenhagen Temperature Yesterday

Maximum temperature yesterday: 57 °F (at 11:20 am)
Minimum temperature yesterday: 50 °F (at 1:20 am)
Average temperature yesterday: 55 °F

High & Low Weather Summary for the Past Weeks

 TemperatureHumidityPressure
High63 °F (Oct 14, 12:50 am)100% (Oct 8, 10:20 am)30.24 "Hg (Oct 8, 10:20 am)
Low32 °F (Oct 7, 4:20 am)50% (Oct 5, 3:50 pm)29.47 "Hg (Oct 8, 12:50 pm)
Average52 °F85%29.79 "Hg
* Reported Oct 4 3:20 pm — Oct 19 3:50 pm, Copenhagen. Weather by CustomWeather, © 2019

Note: Actual official high and low records may vary slightly from our data, if they occured in-between our weather recording intervals... More about our weather records

Advertising

Copenhagen Weather History for the Previous 24 Hours

Scroll right to see more
 ConditionsComfort  
Time TempWeatherWind HumidityBarometerVisibility
3:50 pm
Sat, Oct 19
55 °FCool.16 mph82%29.74 "HgN/A
3:20 pm55 °FCool.17 mph82%29.74 "HgN/A
2:50 pm55 °FCool.16 mph82%29.74 "HgN/A
2:20 pm57 °FPassing clouds.16 mph77%29.74 "HgN/A
1:50 pm55 °FPassing clouds.16 mph82%29.74 "HgN/A
1:20 pm55 °FScattered clouds.16 mph82%29.74 "HgN/A
12:50 pm55 °FPartly sunny.15 mph82%29.74 "HgN/A
12:20 pm54 °FCool.15 mph88%29.74 "HgN/A
11:50 am54 °FCool.16 mph88%29.74 "HgN/A
11:20 am55 °FCool.16 mph82%29.74 "HgN/A
10:50 am54 °FCool.16 mph82%29.74 "HgN/A
10:20 am54 °FCool.16 mph82%29.74 "HgN/A
9:50 am54 °FCool.16 mph82%29.74 "HgN/A
9:20 am54 °FCool.16 mph82%29.74 "HgN/A
8:50 am52 °FPassing clouds.15 mph88%29.71 "HgN/A
8:20 am52 °FPartly sunny.15 mph82%29.71 "HgN/A
7:50 am52 °FScattered clouds.14 mph82%29.71 "HgN/A
7:20 am52 °FPassing clouds.15 mph82%29.71 "HgN/A
6:50 am52 °FCool.17 mph82%29.71 "HgN/A
6:20 am50 °FCool.15 mph88%29.71 "HgN/A
5:50 am50 °FCool.14 mph88%29.71 "HgN/A
5:20 am52 °FCool.15 mph82%29.71 "HgN/A
4:50 am52 °FPassing clouds.15 mph82%29.68 "HgN/A
4:20 am52 °FCool.13 mph82%29.68 "HgN/A
3:50 am52 °FCool.15 mph82%29.68 "HgN/A
3:20 am52 °FCool.14 mph82%29.68 "HgN/A
2:50 am52 °FCool.15 mph82%29.68 "HgN/A
2:20 am52 °FCool.16 mph82%29.68 "HgN/A
1:50 am52 °FCool.16 mph82%29.68 "HgN/A
1:20 am52 °FPassing clouds.16 mph88%29.65 "HgN/A
12:50 am54 °FPassing clouds.15 mph82%29.68 "HgN/A
12:20 am54 °FPassing clouds.17 mph82%29.65 "HgN/A
11:50 pm
Fri, Oct 18
54 °FPassing clouds.17 mph82%29.65 "HgN/A
11:20 pm54 °FPassing clouds.18 mph82%29.65 "HgN/A
10:50 pm54 °FPassing clouds.18 mph82%29.62 "HgN/A
10:20 pm54 °FPassing clouds.18 mph82%29.62 "HgN/A
9:50 pm54 °FPassing clouds.15 mph82%29.62 "HgN/A
9:20 pm55 °FPassing clouds.17 mph82%29.62 "HgN/A
8:50 pm55 °FPassing clouds.21 mph82%29.62 "HgN/A
8:20 pm57 °FSprinkles. Passing clouds.18 mph82%29.59 "HgN/A
7:50 pm57 °FSprinkles. Partly cloudy.22 mph94%29.59 "Hg6 mi
7:20 pm57 °FPassing clouds.21 mph94%29.59 "HgN/A
6:50 pm57 °FClear.18 mph94%29.62 "Hg10 mi
6:20 pm57 °FPassing clouds.15 mph94%29.62 "HgN/A
5:50 pm57 °FBroken clouds.14 mph88%29.65 "HgN/A
5:20 pm57 °FScattered clouds.15 mph94%29.65 "HgN/A
Weather by CustomWeather, © 2019

See weather overview